Regional Weather Roundup
Issued by NWS Midland/Odessa, TX

Skip options and go directly to product.
Home | Oldest Version | Previous Version | Current Version | All | Text Only | Save Text | Print | Product List | Glossary Off

Skip product version selection by date and time.   

772
ASUS44 KMAF 020410
RWRMAF
MIDLAND AREA WEATHER ROUNDUP
NATIONAL WEATHER SERVICE MIDLAND TX
1100 PM CDT WED OCT 01 2014

...IN SOUTHWEST TEXAS AND SOUTHEAST NEW MEXICO...

CITY           SKY/WX    TMP DP  RH WIND       PRES   REMARKS
ALPINE         CLEAR     65  46  50 SW6       30.03R
ANDREWS        FAIR      73  48  41 SW7       29.86R
ARTESIA        NOT AVBL
BIG SPRING     CLEAR     78  62  59 SE9       29.85R
CARLSBAD       CLEAR     63  48  58 W6        29.84S
DRYDEN           N/A     78  65  63 NE7       29.82R
FORT STOCKTON  CLEAR     76  52  43 S13       29.86R
GUAD PASS      CLEAR     66  34  30 SW13G20   30.01S
HOBBS          CLEAR     63  46  55 SW6       29.88R
MARFA          CLEAR     57  45  62 N8        30.02R
MIDLAND AIRPK  CLEAR     79  62  56 S9        29.84S
MIDLAND INTL   CLEAR     79  62  56 S10       29.84R
ODESSA         CLEAR     77  54  44 S13       29.85R
PECOS          CLEAR     69  52  55 SW7       29.83R
PRESIDIO       FAIR      79  48  34 N8        29.84S
SEMINOLE       CLEAR     65  50  58 SW5       29.87R
SNYDER         CLEAR     74  56  54 S6        29.81S
WINK           CLEAR     72  51  47 CALM      29.82R
$$
...OTHER STATIONS IN TEXAS...

CITY           SKY/WX    TMP DP  RH WIND       PRES   REMARKS
ABILENE        PTCLDY    83  64  52 S15       29.77S
AMARILLO       CLEAR     63  46  54 S9        29.82S
AUSTIN         PTCLDY    80  70  71 S12       29.82R
BROWNSVILLE    PTCLDY    82  82 100 SE8       29.83R
CORPUS CHRISTI PTCLDY    81  78  91 SE10      29.83R
DALLAS FTW     PTCLDY    84  66  54 S14       29.77R
DEL RIO        CLEAR     81  69  67 SE8       29.78R
EL PASO        CLEAR     75  32  20 NW7       29.92R
HOUSTON INT    PTCLDY    79  75  87 S5        29.85S
LUBBOCK        CLEAR     66  50  56 SW3       29.83S
SAN ANGELO     CLEAR     80  61  52 S9        29.80R
SAN ANTONIO    PTCLDY    81  74  79 S16       29.84R
WACO           CLEAR     82  69  64 S15       29.79S
WICHITA FALLS  NOT AVBL
$$
...OTHER LOCATIONS IN NEW MEXICO...

CITY           SKY/WX    TMP DP  RH WIND       PRES   REMARKS
ALAMAGORDO     CLEAR     63  32  31 S9        29.94R
ALBUQUERQUE    MOCLDY    67  34  29 N13       29.99R
CANNON AFB     CLEAR     63  42  47 W5        29.88S
CLOVIS           N/A     61  43  51 W5        29.89S
HOLLOMAN AFB   CLEAR     69  33  26 S7        29.91R
ROSWELL        CLEAR     65  43  44 W10       29.84F
RUIDOSO        CLEAR     61  28  29 S15G29    30.06S
SANTA FE       CLEAR     52  27  38 N10       30.00R
TRUTH OR CONSE CLEAR     68  34  28 W9        29.95R
TUCUMCARI      CLEAR     66  41  40 W10       29.83R
$$

USA.gov is the U.S. government's official web portal to all federal, state and local government web resources and services.